Home > Weather > Versoix > Past weeks

Flag for Switzerland Past Weather in Versoix, Geneva, Switzerland — Yesterday and Last 2 Weeks

Now
66 °F

Overcast.


Feels Like: 66 °F
Forecast: 48 / 74 °F
Wind: 3 mph from Southwest

Location: Geneve-Cointrin

Current Time: Jul 2, 2016 at 11:47:31 AM

Latest Report: Jul 2, 2016 at 11:00 AM


Visibility: 13 mi

Pressure: 30.06 "Hg

Humidity: 88%

Dew Point: 63 °F

Location of VersoixLocation

Past Weather in Versoix — Graph

°F

Versoix Temperature Yesterday

Maximum temperature yesterday: 85 °F (at 5:00 PM)
Minimum temperature yesterday: 60 °F (at 6:00 AM)
Average temperature yesterday: 72 °F

High & Low Weather Summary for the Past Weeks

 TemperatureHumidityPressure
High89 °F (Jun 23, 6:00 PM)95% (Jun 20, 4:00 AM)30.28 "Hg (Jun 20, 4:00 AM)
Low47 °F (Jun 20, 6:00 AM)31% (Jun 24, 4:00 PM)29.84 "Hg (Jun 29, 8:00 PM)
Average67 °F68%30.08 "Hg
* Reported Jun 17 10:00 AM — Jul 2 10:00 AM, Versoix, Weather by CustomWeather, © 2016

Note: Actual official high and low records may vary slightly from our data, if they occured in-between our weather recording intervals... More about our weather records

Advertising

Versoix Weather History for the Previous 24 Hours

Scroll right to see more
 ConditionsComfort  
Time TempWeatherWind HumidityBarometerVisibility
10:00 AM
Sat, Jul 2
66 °FMild.6 mph87%30.06 "HgN/A
9:00 AM64 °FMild.5 mph93%30.06 "HgN/A
8:00 AM65 °FSprinkles. Overcast.5 mph91%30.04 "Hg12 mi
7:00 AM64 °FMild.8 mph92%30.03 "HgN/A
6:00 AM64 °FMild.2 mph95%30.02 "HgN/A
5:00 AM65 °FThundershowers. Overcast.2 mph93%30.01 "Hg2 mi
4:00 AM68 °FMild.6 mph81%29.99 "HgN/A
3:00 AM64 °FMild.2 mph90%30.02 "HgN/A
2:00 AM65 °FThunderstorms. Passing clouds.6 mph85%30.01 "Hg19 mi
1:00 AM73 °FMild.10 mph55%29.98 "HgN/A
12:00 AM71 °FMild.2 mph68%29.98 "HgN/A
11:00 PM
Fri, Jul 1
73 °FPassing clouds.3 mph59%29.98 "Hg31 mi
10:00 PM74 °FMild.3 mph56%29.97 "HgN/A
9:00 PM78 °FWarm.5 mph50%29.95 "HgN/A
8:00 PM82 °FPassing clouds.9 mph37%29.93 "Hg31 mi
7:00 PM83 °FPleasantly warm.10 mph37%29.94 "HgN/A
6:00 PM85 °FPleasantly warm.14 mph34%29.94 "HgN/A
5:00 PM85 °FPassing clouds.10 mph37%29.95 "Hg31 mi
4:00 PM85 °FPleasantly warm.10 mph39%29.96 "HgN/A
3:00 PM82 °FWarm.13 mph42%29.98 "HgN/A
2:00 PM80 °FPassing clouds.10 mph48%29.99 "Hg28 mi
1:00 PM78 °FWarm.7 mph51%30.01 "HgN/A
12:00 PM75 °FMild.5 mph56%30.03 "HgN/A
11:00 AM72 °FPassing clouds.2 mph62%30.05 "Hg25 mi
Weather by CustomWeather, © 2016

See weather overviewHow to use our weather pages